Change the Weather History Date:

Friday, March 29, 2013

  Actual Average Record
Temperature  
Mean Temperature 64 °F -  
Max Temperature 71 °F 67 °F 82 °F (1998)
Min Temperature 57 °F 48 °F 30 °F (2009)
Degree Days  
Heating Degree Days 1    
Growing Degree Days 14 (Base 50)    
Moisture  
Dew Point 54 °F    
Average Humidity 67    
Maximum Humidity 88    
Minimum Humidity 57    
Precipitation  
Precipitation 0.00 in - - ()
Sea Level Pressure  
Sea Level Pressure 30.16 in    
Wind  
Wind Speed 11 mph (South)    
Max Wind Speed 17 mph    
Max Gust Speed 24 mph    
Visibility 10 miles    
Events      
Averages and records for this station are not official NWS values.
T = Trace of Precipitation, MM = Missing Value Source: NWS Daily Summary

Daily Weather History Graph

Daily Weather History Graph

Search for Another Location

Airport or City:

Trip Planner

Search our weather history database for the weather conditions in past years. The results will help you decide how hot, cold, wet, or windy it might be!

Date:

Astronomy

Mar. 29, 2013 Rise Set
Actual Time 7:12 AM CDT 7:40 PM CDT
Civil Twilight 6:48 AM CDT 8:05 PM CDT
Nautical Twilight 6:18 AM CDT 8:34 PM CDT
Astronomical Twilight 5:48 AM CDT 9:04 PM CDT
Moon 10:31 PM CDT (3/29) 8:31 AM CDT (3/29)
Length of Visible Light 13h 17m
Length of Day
12h 27m
Waning Gibbous, 93% of the Moon is Illuminated
Mar 29
Waning Gibbous
Apr 2
Last Quarter
Apr 10
New
Apr 18
First Quarter
Apr 25
Full

Hourly Weather History & Observations

Time (CDT) Temp. Dew Point Humidity Pressure Visibility Wind Dir Wind Speed Gust Speed Precip Events Conditions
12:15 AM 64.4 °F 51.8 °F 64% 30.18 in 10.0 mi SSE 10.4 mph - N/A   Mostly Cloudy
12:35 AM 64.4 °F 51.8 °F 64% 30.18 in 10.0 mi SSE 10.4 mph - N/A   Mostly Cloudy
12:55 AM 64.4 °F 51.8 °F 64% 30.18 in 10.0 mi SSE 8.1 mph - N/A   Overcast
1:15 AM 64.4 °F 51.8 °F 64% 30.18 in 10.0 mi South 9.2 mph - N/A   Overcast
1:35 AM 64.4 °F 51.8 °F 64% 30.18 in 10.0 mi South 9.2 mph - N/A   Overcast
1:55 AM 62.6 °F 51.8 °F 68% 30.17 in 10.0 mi South 11.5 mph - N/A   Overcast
2:15 AM 62.6 °F 51.8 °F 68% 30.17 in 10.0 mi South 11.5 mph - N/A   Overcast
2:35 AM 62.6 °F 51.8 °F 68% 30.17 in 10.0 mi South 11.5 mph - N/A   Overcast
2:55 AM 62.6 °F 51.8 °F 68% 30.17 in 10.0 mi South 12.7 mph - N/A   Overcast
3:15 AM 62.6 °F 51.8 °F 68% 30.17 in 10.0 mi South 12.7 mph - N/A   Overcast
3:35 AM 62.6 °F 51.8 °F 68% 30.16 in 10.0 mi South 13.8 mph - N/A   Overcast
3:55 AM 60.8 °F 51.8 °F 72% 30.16 in 10.0 mi South 12.7 mph - N/A   Mostly Cloudy
4:15 AM 60.8 °F 51.8 °F 72% 30.16 in 10.0 mi SSW 10.4 mph - N/A   Mostly Cloudy
4:35 AM 60.8 °F 51.8 °F 72% 30.16 in 10.0 mi SSW 11.5 mph - N/A   Overcast
4:55 AM 60.8 °F 51.8 °F 72% 30.16 in 10.0 mi SSW 12.7 mph - N/A   Overcast
5:15 AM 60.8 °F 53.6 °F 77% 30.16 in 10.0 mi SSW 12.7 mph - N/A   Overcast
5:35 AM 60.8 °F 51.8 °F 72% 30.16 in 10.0 mi SSW 12.7 mph - N/A   Mostly Cloudy
5:55 AM 59.0 °F 51.8 °F 77% 30.17 in 10.0 mi SSW 10.4 mph - N/A   Partly Cloudy
6:15 AM 59.0 °F 51.8 °F 77% 30.16 in 10.0 mi SSW 11.5 mph - N/A   Clear
6:35 AM 57.2 °F 51.8 °F 82% 30.17 in 10.0 mi SSW 10.4 mph - N/A   Clear
6:55 AM 57.2 °F 51.8 °F 82% 30.18 in 10.0 mi SSW 9.2 mph - N/A   Clear
7:15 AM 57.2 °F 51.8 °F 82% 30.18 in 10.0 mi SSW 6.9 mph - N/A   Clear
7:35 AM 57.2 °F 51.8 °F 82% 30.19 in 10.0 mi SSW 10.4 mph - N/A   Clear
7:55 AM 57.2 °F 53.6 °F 88% 30.20 in 10.0 mi SSW 8.1 mph - N/A   Clear
8:15 AM 59.0 °F 53.6 °F 82% 30.20 in 10.0 mi SSW 8.1 mph - N/A   Clear
8:35 AM 60.8 °F 53.6 °F 77% 30.21 in 10.0 mi SSW 9.2 mph - N/A   Clear
8:55 AM 60.8 °F 53.6 °F 77% 30.21 in 10.0 mi SSW 17.3 mph 20.7 mph N/A   Clear
9:15 AM 62.6 °F 55.4 °F 77% 30.21 in 10.0 mi SW 17.3 mph - N/A   Scattered Clouds
9:35 AM 62.6 °F 55.4 °F 77% 30.21 in 10.0 mi SW 17.3 mph - N/A   Mostly Cloudy
9:55 AM 64.4 °F 55.4 °F 73% 30.21 in 10.0 mi SW 17.3 mph - N/A   Overcast
10:15 AM 64.4 °F 55.4 °F 73% 30.20 in 10.0 mi SSW 13.8 mph - N/A   Overcast
10:35 AM 64.4 °F 55.4 °F 73% 30.20 in 10.0 mi SW 16.1 mph - N/A   Overcast
10:55 AM 66.2 °F 55.4 °F 68% 30.19 in 10.0 mi SW 15.0 mph - N/A   Overcast
11:15 AM 68.0 °F 55.4 °F 64% 30.19 in 10.0 mi SW 13.8 mph - N/A   Overcast
11:55 AM 69.8 °F 55.4 °F 60% 30.18 in 10.0 mi SSW 17.3 mph 24.2 mph N/A   Overcast
12:15 PM 71.6 °F 55.4 °F 57% 30.18 in 10.0 mi SSW 16.1 mph - N/A   Mostly Cloudy
12:35 PM 71.6 °F 55.4 °F 57% 30.18 in 10.0 mi SW 15.0 mph 23.0 mph N/A   Overcast
12:55 PM 71.6 °F 55.4 °F 57% 30.17 in 10.0 mi SSW 16.1 mph 19.6 mph N/A   Mostly Cloudy
1:15 PM 71.6 °F 55.4 °F 57% 30.17 in 10.0 mi SSW 13.8 mph 19.6 mph N/A   Overcast
1:35 PM 71.6 °F 55.4 °F 57% 30.17 in 10.0 mi SW 10.4 mph 17.3 mph N/A   Overcast
1:55 PM 71.6 °F 55.4 °F 57% 30.17 in 10.0 mi SW 10.4 mph - N/A   Overcast
2:15 PM 69.8 °F 55.4 °F 60% 30.17 in 10.0 mi SSW 10.4 mph 16.1 mph N/A   Overcast
2:35 PM 71.6 °F 55.4 °F 57% 30.16 in 10.0 mi SW 6.9 mph - N/A   Overcast
2:55 PM 71.6 °F 55.4 °F 57% 30.16 in 10.0 mi South 12.7 mph - N/A   Overcast
3:15 PM 71.6 °F 55.4 °F 57% 30.15 in 10.0 mi South 9.2 mph - N/A   Overcast
3:35 PM 71.6 °F 55.4 °F 57% 30.15 in 10.0 mi SW 8.1 mph - N/A   Overcast
3:55 PM 71.6 °F 55.4 °F 57% 30.14 in 8.0 mi SSE 8.1 mph - N/A   Overcast
4:15 PM 71.6 °F 55.4 °F 57% 30.13 in 10.0 mi SSE 10.4 mph - N/A   Overcast
4:35 PM 71.6 °F 55.4 °F 57% 30.12 in 10.0 mi South 11.5 mph - N/A   Overcast
4:55 PM 71.6 °F 55.4 °F 57% 30.12 in 10.0 mi SSE 12.7 mph - N/A   Overcast
5:15 PM 71.6 °F 55.4 °F 57% 30.11 in 10.0 mi South 10.4 mph - N/A   Mostly Cloudy
5:35 PM 71.6 °F 55.4 °F 57% 30.11 in 10.0 mi South 11.5 mph - N/A   Partly Cloudy
5:55 PM 71.6 °F 55.4 °F 57% 30.09 in 10.0 mi SSE 16.1 mph - N/A   Clear
6:15 PM 71.6 °F 55.4 °F 57% 30.11 in 10.0 mi South 8.1 mph - N/A   Scattered Clouds
6:35 PM 71.6 °F 55.4 °F 57% 30.12 in 10.0 mi SSE 5.8 mph - N/A   Overcast
6:55 PM 69.8 °F 55.4 °F 60% 30.12 in 10.0 mi SSE 5.8 mph - N/A   Overcast
7:15 PM 69.8 °F 55.4 °F 60% 30.12 in 10.0 mi SSE 5.8 mph - N/A   Mostly Cloudy
7:35 PM 68.0 °F 55.4 °F 64% 30.12 in 10.0 mi SSE 5.8 mph - N/A   Scattered Clouds
7:55 PM 68.0 °F 55.4 °F 64% 30.10 in 10.0 mi South 8.1 mph - N/A   Scattered Clouds
8:15 PM 66.2 °F 55.4 °F 68% 30.11 in 10.0 mi South 5.8 mph - N/A   Clear
8:35 PM 66.2 °F 55.4 °F 68% 30.11 in 10.0 mi SSE 8.1 mph - N/A   Partly Cloudy
8:55 PM 66.2 °F 55.4 °F 68% 30.12 in 10.0 mi South 4.6 mph - N/A   Clear
9:15 PM 64.4 °F 55.4 °F 73% 30.14 in 10.0 mi Calm Calm - N/A   Clear
9:35 PM 64.4 °F 55.4 °F 73% 30.13 in 10.0 mi SE 5.8 mph - N/A   Clear
9:55 PM 64.4 °F 55.4 °F 73% 30.12 in 10.0 mi South 13.8 mph - N/A   Clear
10:15 PM 66.2 °F 55.4 °F 68% 30.12 in 10.0 mi South 12.7 mph - N/A   Clear
10:35 PM 66.2 °F 55.4 °F 68% 30.12 in 10.0 mi South 11.5 mph - N/A   Clear
10:55 PM 66.2 °F 55.4 °F 68% 30.12 in 10.0 mi South 13.8 mph - N/A   Clear
11:15 PM 66.2 °F 55.4 °F 68% 30.11 in 10.0 mi South 13.8 mph - N/A   Partly Cloudy
11:35 PM 66.2 °F 53.6 °F 64% 30.10 in 10.0 mi SSE 11.5 mph - N/A   Clear
11:55 PM 66.2 °F 53.6 °F 64% 30.09 in 10.0 mi South 8.1 mph - N/A   Clear